Vertical_Velocity
4 6 5 1 1 1 2 2 0 -1 -1 -2 -1 -0 -3 -4 -4 -3 -1 11 -1 -1 1 1 0 -0 0 1 0 -0 -1 -1 -1
1 -3 -3 -1 0 1 -1 -0 1 1 1 0 -2 -2 -1 -4 17 3 -5 -2 -1 -1 -2 -1 -0 -0 -0 -0 -1 -1 -1 -0 0
-3 -1 -1 -2 -2 1 0 -0 -1 -2 -1 -0 1 0 -1 -3 4 1 -3 -1 -3 -1 -1 -1 -1 -1 -0 0 -1 -0 -1 -1 -1
-0 -0 -2 -1 -1 -2 -1 0 0 1 -0 -2 -1 -1 -0 -2 4 1 2 -3 3 -3 -1 -1 -0 -1 -1 1 1 -1 -0 -0 -1
1 0 1 -0 -1 -1 -3 -2 -1 -0 -0 1 1 2 0 -0 5 -3 3 -1 -1 -1 -1 -1 -1 -1 -0 -0 0 0 1 -0 0
-1 -1 1 3 2 -0 1 -0 -2 -3 -1 -2 -1 -1 -1 -1 3 -0 -1 1 2 2 -2 -1 -1 -0 -1 -1 -0 0 -0 1 -0
-6 6 -3 -2 -2 0 -0 -0 2 0 -1 -7 -2 -2 -2 2 2 -1 -2 -1 -1 0 -1 -2 -1 -1 -1 -1 -1 1 1 1 -0
-3 1 2 -0 -0 -2 -2 -1 -1 -2 1 -0 3 -6 -3 3 -1 2 -3 -1 -0 -2 -3 0 -2 -2 -1 -0 -0 0 -1 1 1
-0 -2 -4 0 5 2 2 -1 1 -2 -4 3 0 -1 1 -3 -3 5 -3 -1 -0 1 -0 -1 -0 -3 -3 -1 -1 -1 0 -1 -0
1 4 3 4 2 -1 0 1 1 3 0 -5 -5 5 -0 3 1 -3 -2 -4 -2 -2 1 -2 -2 -1 -1 -3 -2 -2 1 0 -1
1 3 -3 -1 3 4 5 4 4 -0 3 -2 1 -3 3 -5 0 3 5 -1 -2 -1 -0 0 1 1 -1 0 -2 -3 -3 -0 -0
-1 -1 -2 3 -5 -3 6 4 5 4 -1 4 4 1 -0 2 4 -4 -1 4 -1 -1 -3 1 1 2 0 5 2 -1 -2 -3 -1
-0 -2 -2 0 2 4 -3 4 3 4 2 -1 -2 0 5 3 -5 14 -1 -3 1 -0 1 1 3 1 -1 -0 -2 5 -0 -2 -2
3 1 -1 -2 -1 -4 0 -1 -2 10 0 1 2 -0 -2 1 7 1 1 -2 -2 -1 -0 -1 -3 1 3 -2 1 -0 -0 -0 -3
4 2 1 2 0 -2 -1 -1 1 -1 -3 3 10 -7 -0 0 -1 3 5 -0 4 -3 -8 -11 -11 -4 -3 -1 -1 -2 1 5 -2
0 2 1 1 3 1 -1 1 6 1 4 5 4 -4 -1 -6 2 1 -2 -2 -0 -0 3 3 -1 1 -6 -17 -6 3 -2 0 4
-1 2 3 4 4 4 6 3 -1 -4 -5 1 7 0 -7 -4 -7 -3 -1 -4 3 -0 3 -1 4 2 -3 -19 -8 -3 0 1 1
-2 -0 1 -1 4 8 3 5 7 4 1 -0 8 4 -5 2 -3 -2 2 2 2 -1 0 -1 -1 -0 2 -0 1 -14 -6 4 -3
-1 -3 0 1 -3 -1 2 2 -0 3 4 1 -3 2 2 -2 -4 14 6 2 -2 1 2 1 0 3 2 2 2 -1 -3 0 6
1 3 3 1 3 8 4 -2 -2 5 4 -2 3 4 -1 -1 6 -11 -12 4 5 -2 -0 -1 -7 -6 -4 -4 -8 3 6 3 0
Height
1547 1546 1547 1547 1546 1546 1545 1544 1543 1543 1543 1542 1542 1542 1543 1544 1545 1546 1546 1546 1544 1543 1543 1543 1543 1543 1542 1542 1541 1540 1539 1539 1538
1547 1547 1547 1547 1547 1546 1545 1545 1544 1544 1543 1543 1542 1543 1543 1544 1548 1546 1546 1546 1544 1544 1544 1544 1543 1543 1543 1542 1542 1541 1540 1540 1539
1547 1547 1547 1547 1546 1546 1545 1544 1544 1543 1543 1543 1543 1543 1543 1545 1547 1546 1545 1545 1545 1545 1544 1544 1543 1543 1543 1543 1542 1542 1542 1541 1540
1546 1546 1545 1545 1545 1545 1544 1544 1543 1543 1542 1542 1542 1542 1543 1543 1546 1546 1546 1544 1544 1544 1545 1544 1544 1543 1543 1543 1543 1543 1542 1542 1541
1545 1545 1544 1544 1543 1543 1543 1543 1542 1542 1542 1541 1541 1542 1542 1542 1544 1543 1544 1543 1543 1543 1544 1544 1544 1543 1543 1543 1543 1543 1542 1542 1541
1544 1544 1543 1543 1542 1542 1541 1541 1541 1540 1540 1540 1540 1540 1540 1542 1543 1543 1541 1541 1542 1542 1542 1542 1542 1542 1543 1542 1542 1542 1542 1542 1541
1543 1542 1541 1541 1540 1540 1539 1539 1539 1538 1538 1537 1538 1538 1538 1541 1542 1541 1539 1539 1540 1540 1539 1540 1541 1541 1541 1541 1541 1541 1541 1541 1541
1540 1540 1539 1538 1537 1536 1536 1536 1535 1536 1536 1537 1537 1536 1537 1539 1539 1538 1537 1537 1537 1537 1538 1538 1538 1539 1539 1540 1540 1540 1540 1540 1539
1535 1535 1535 1535 1534 1533 1534 1533 1532 1533 1533 1535 1536 1536 1536 1536 1536 1536 1533 1534 1534 1535 1535 1536 1535 1536 1537 1537 1538 1538 1538 1538 1538
1531 1530 1530 1530 1529 1529 1529 1529 1530 1529 1528 1529 1531 1532 1532 1532 1531 1531 1530 1530 1531 1531 1532 1533 1533 1533 1534 1534 1535 1536 1536 1536 1536
1527 1527 1525 1524 1524 1524 1524 1524 1523 1523 1524 1524 1524 1525 1527 1527 1527 1527 1527 1525 1526 1527 1528 1529 1530 1531 1531 1532 1532 1532 1532 1532 1532
1521 1520 1519 1520 1518 1518 1518 1518 1518 1517 1517 1518 1519 1519 1520 1521 1522 1522 1522 1522 1522 1523 1524 1526 1527 1528 1529 1530 1529 1529 1529 1529 1529
1515 1514 1513 1514 1514 1513 1511 1512 1512 1512 1511 1511 1512 1513 1513 1514 1516 1516 1516 1517 1517 1518 1519 1522 1524 1524 1525 1526 1527 1527 1527 1526 1526
1510 1509 1508 1507 1506 1506 1506 1506 1506 1505 1505 1505 1505 1506 1506 1507 1509 1509 1510 1511 1512 1513 1516 1517 1519 1520 1520 1521 1522 1522 1523 1522 1522
1504 1502 1501 1501 1499 1499 1499 1499 1500 1499 1499 1500 1498 1499 1499 1501 1501 1502 1503 1503 1506 1506 1507 1510 1512 1514 1514 1515 1517 1517 1518 1518 1517
1495 1494 1494 1495 1494 1494 1494 1494 1494 1494 1495 1494 1492 1493 1492 1492 1494 1495 1496 1497 1497 1499 1499 1497 1499 1505 1505 1505 1510 1510 1511 1512 1512
1487 1486 1486 1487 1487 1487 1488 1488 1487 1487 1489 1490 1490 1487 1487 1485 1486 1487 1488 1489 1489 1490 1491 1493 1496 1497 1497 1498 1501 1503 1504 1505 1504
1480 1479 1478 1479 1480 1480 1481 1482 1482 1481 1481 1484 1486 1484 1481 1482 1479 1479 1480 1481 1482 1482 1484 1487 1489 1490 1491 1490 1489 1490 1494 1497 1497
1475 1475 1474 1473 1474 1474 1475 1476 1475 1476 1476 1477 1478 1479 1480 1479 1477 1477 1478 1478 1478 1479 1478 1479 1481 1483 1483 1484 1484 1485 1485 1487 1489
1475 1474 1472 1471 1470 1469 1469 1469 1469 1469 1469 1471 1473 1473 1474 1476 1476 1474 1475 1476 1476 1476 1477 1475 1475 1476 1476 1477 1478 1479 1480 1479 1480